COSMOS 2491 DEB, 47110

Orbit data source: Space-Track

COSMOS 2491 DEB, 47110 is space debris in LEO originally from a launch on Wed, 25 Dec 2013 UTC launched from the Plesetsk Missile And Space Complex (PKMTR). Debris objects in space refer to the collection of defunct objects orbiting the Earth. Examples of debris include non-operational satellites, rocket bodies, and fragments generated from explosions, collisions, or faulty payload assembly.

Loading next visibility...
Identifier
47110, 2013-076AF
Orbit
LEO
Country
Flag of CISCIS
Related business
Manufacturer
TsNIIKhM
Mission
Spacecraft
Bus & Motor
Unknown
Mass
Unknown
Launch date (UTC)
2013-12-25 (12 years ago)
Launch vehicle
Unknown
Launch site
Plesetsk Missile And Space Complex (PKMTR)
Object type
Payload
Rocket body
Debris
Shape & HBR
Unknown
Radar Cross Section
Small (<0.1 m²)

Expand to show TLE details & history
Last TLE update: 3 weeks ago

TLE from 3 weeks ago
0 COSMOS 2491 DEB
1 47110U 13076AF  25221.02335537  .00000440  00000-0  24752-2 0  9990
2 47110  82.4385 335.6904 0134988 182.3618 177.6849 12.57468962252345
Epoch: 2025-08-09T00:33Z
TLE epoch observation values (Epoch: 2025-08-09T00:33:37.903Z)
Latitude
-0.00006°
Longitude
9.51745°
Altitude
1,541.51 km
Speed
7.048 km/s
True Right ascension
22h 22m 45s
True Declination
0° 00' 00"
Sunlit
Object was in full shadow at epoch
Visualization orbit readout
Latitude
Unknown
Longitude
Unknown
Altitude
Unknown
Speed
Unknown
Apparent Right ascension
Unknown
Apparent Declination
Unknown
Sunlit
N/A
Visualization observer readout
Local Sidereal Time
16:10:47
Azimuth
Unknown
Elevation
Unknown
Doppler factor
Unknown
Orbital elements
Apogee altitude
1,536.152 km
Perigee altitude
1,325.331 km
Semi-major axis
7,808.878 km
Eccentricity
0.0135
Inclination
82.4385°
RAAN
335.6904°
Arg. of periapsis
182.3618°
True anomaly
177.74635°
Mean anomaly
177.6849°
Eccentric anomaly
177.71573°
Mean motion
3.14529 °/min
Orbital period
114.46 mins
BSTAR
0.0024752
Loading maneuver chart data...
Computing Atmospheric mass density...
Loading historical data...
Loading historical data...
Loading historical data...
Loading historical data...
Loading historical data...
Loading historical data...
Loading historical data...

Documentation

Showing up to 5 results
|